STARLINK-37700, 69215

Orbit data source: Space-Track

STARLINK-37700, 69215 is a payload satellite owned by SpaceX/Seattle (US) in SSO that was launched on Tue, 26 May 2026 UTC via an FALCON 9 launch vehicle from the Air Force Western Test Range (AFWTR). Payload-class satellites include a variety of spacecraft equipped with specific instruments for various scientific and technological missions. These include communications satellites like Starlink; space stations such as the ISS; scientific satellites like the Hubble; Earth observation satellites from companies like Planet Labs, Umbra, and HawkEye 360; GPS; miniature CubeSats for education and research; and military/defense satellites.

Loading next visibility...
Identifier
69215, 2026-115E
Orbit
SSO
Country
Flag of USUS
Related business
Manufacturer
SpaceX/Seattle
Mission
Operational spacecraft
Bus & Motor
STARLINK V2MO, Unknown motor
Mass
575 kg wet, ~530 kg dry
Launch date (UTC)
2026-05-26 (4 weeks ago)
Launch vehicle
FALCON 9
Launch site
Air Force Western Test Range (AFWTR)
Object type
Payload
Rocket body
Debris
Shape & HBR
Unknown
Radar Cross Section
Large (>1 m²)

Expand to show TLE details & history
Last TLE update: 20 hours ago

TLE from 20 hours ago
0 STARLINK-37700
1 69215U 26115E   26171.02763961  .00038749  00000-0  70983-3 0  9990
2 69215  97.2833 188.0452 0000662  97.1151 263.0176 15.49221530  5094
Epoch: 2026-06-20T00:39Z
TLE epoch observation values (Epoch: 2026-06-20T00:39:48.062Z)
Latitude
0.00003°
Longitude
-90.15322°
Altitude
422.19 km
Speed
7.658 km/s
True Right ascension
12h 32m 10s
True Declination
0° 00' 00"
Sunlit
Object was in daylight at epoch
Visualization orbit readout
Latitude
Unknown
Longitude
Unknown
Altitude
Unknown
Speed
Unknown
Apparent Right ascension
Unknown
Apparent Declination
Unknown
Sunlit
N/A
Visualization observer readout
Local Sidereal Time
07:15:50
Azimuth
Unknown
Elevation
Unknown
Doppler factor
Unknown
Orbital elements
Apogee altitude
416.374 km
Perigee altitude
415.474 km
Semi-major axis
6,794.061 km
Eccentricity
0.00007
Inclination
97.2833°
RAAN
188.0452°
Arg. of periapsis
97.1151°
True anomaly
263.01007°
Mean anomaly
263.0176°
Eccentric anomaly
263.01384°
Mean motion
3.87569 °/min
Orbital period
92.89 mins
BSTAR
0.00070983
Loading maneuver chart data...
Computing Atmospheric mass density...
Loading historical data...
Loading historical data...
Loading historical data...
Loading historical data...
Loading historical data...
Loading historical data...
Loading historical data...

Documentation

Showing up to 5 results
|